• In France
  • List of Countries
  • For 7 days
  • Water Temperature
  • Satellite Maps
  • Weather Map
  • Weather Widgets
  • user-avatar
    Login

    Hourly Weather Leticia

    Today, 14 December, Thursday

    Time Temperature Precipitation Wind Pressure Humidity
    00:00 +24°C° 0 mm 0 mps 750 mmHg 92%
    01:00 +23°C° 0 mm 0 mps 750 mmHg 92%
    02:00 +23°C° 0 mm 0 mps 750 mmHg 93%
    03:00 +23°C° 0 mm 0 mps 750 mmHg 94%
    04:00 +23°C° 0 mm 0 mps 750 mmHg 94%
    05:00 +24°C° 0 mm 0 mps 751 mmHg 90%
    06:00 +25°C° 0 mm 0 mps 751 mmHg 86%
    07:00 +26°C° 0 mm 0 mps 751 mmHg 82%
    08:00 +28°C° 0.1 mm 0 mps 752 mmHg 71%
    09:00 +31°C° 0.1 mm 0 mps 752 mmHg 61%
    10:00 +35°C° 0.1 mm 1 mps 752 mmHg 51%
    11:00 +35°C° 0.1 mm 1 mps 751 mmHg 52%
    12:00 +33°C° 0.1 mm 0 mps 751 mmHg 52%
    13:00 +33°C° 0.1 mm 0 mps 750 mmHg 53%
    14:00 +32°C° 0 mm 0 mps 750 mmHg 54%
    15:00 +32°C° 0 mm 0 mps 749 mmHg 56%
    16:00 +32°C° 0 mm 0 mps 749 mmHg 57%
    17:00 +30°C° 0.1 mm 0 mps 749 mmHg 64%
    18:00 +28°C° 0.1 mm 0 mps 749 mmHg 71%
    19:00 +28°C° 0.1 mm 1 mps 750 mmHg 79%
    20:00 +27°C° 0.2 mm 1 mps 750 mmHg 83%
    21:00 +25°C° 0.2 mm 0 mps 750 mmHg 87%
    22:00 +24°C° 0.2 mm 0 mps 751 mmHg 91%
    23:00 +24°C° 0.2 mm 0 mps 751 mmHg 93%

    Tomorrow, 15 December, Friday

    Time Temperature Precipitation Wind Pressure Humidity
    00:00 +23°C° 0.2 mm 0 mps 750 mmHg 94%
    01:00 +23°C° 0.2 mm 0 mps 750 mmHg 96%
    02:00 +23°C° 0.1 mm 0 mps 750 mmHg 96%
    03:00 +23°C° 0.1 mm 0 mps 750 mmHg 96%
    04:00 +23°C° 0.1 mm 0 mps 750 mmHg 96%
    05:00 +24°C° 0 mm 0 mps 750 mmHg 94%
    06:00 +24°C° 0 mm 0 mps 751 mmHg 91%
    07:00 +25°C° 0 mm 0 mps 751 mmHg 88%
    08:00 +28°C° 0.1 mm 0 mps 751 mmHg 75%
    09:00 +33°C° 0.1 mm 1 mps 751 mmHg 62%
    10:00 +36°C° 0.1 mm 1 mps 752 mmHg 49%
    11:00 +36°C° 0 mm 1 mps 751 mmHg 48%
    12:00 +36°C° 0 mm 1 mps 750 mmHg 48%
    13:00 +36°C° 0 mm 1 mps 749 mmHg 48%
    14:00 +35°C° 0.1 mm 1 mps 748 mmHg 52%
    15:00 +34°C° 0.1 mm 1 mps 748 mmHg 57%
    16:00 +33°C° 0.1 mm 1 mps 747 mmHg 62%
    17:00 +32°C° 0 mm 1 mps 748 mmHg 68%
    18:00 +30°C° 0 mm 1 mps 748 mmHg 74%
    19:00 +29°C° 0 mm 1 mps 748 mmHg 79%
    20:00 +28°C° 0.2 mm 1 mps 749 mmHg 82%
    21:00 +27°C° 0.2 mm 1 mps 749 mmHg 85%
    22:00 +27°C° 0.2 mm 1 mps 750 mmHg 87%
    23:00 +26°C° 0 mm 1 mps 750 mmHg 89%

    Day after tomorrow, 16 December, Saturday

    Time Temperature Precipitation Wind Pressure Humidity
    00:00 +26°C° 0 mm 1 mps 749 mmHg 90%
    01:00 +25°C° 0 mm 1 mps 749 mmHg 91%
    02:00 +25°C° 0 mm 1 mps 749 mmHg 92%
    03:00 +25°C° 0 mm 1 mps 749 mmHg 93%
    04:00 +23°C° 0 mm 0 mps 749 mmHg 93%
    05:00 +26°C° 0 mm 1 mps 750 mmHg 90%
    06:00 +26°C° 0 mm 1 mps 750 mmHg 88%
    07:00 +27°C° 0 mm 1 mps 751 mmHg 85%
    08:00 +29°C° 0 mm 1 mps 751 mmHg 78%
    09:00 +30°C° 0 mm 1 mps 751 mmHg 71%
    10:00 +32°C° 0 mm 1 mps 752 mmHg 64%
    11:00 +33°C° 0 mm 1 mps 750 mmHg 56%
    12:00 +35°C° 0 mm 1 mps 749 mmHg 49%
    13:00 +36°C° 0 mm 1 mps 748 mmHg 42%
    14:00 +36°C° 0 mm 1 mps 747 mmHg 44%
    15:00 +35°C° 0 mm 1 mps 747 mmHg 47%
    16:00 +35°C° 0 mm 1 mps 746 mmHg 50%
    17:00 +33°C° 0 mm 1 mps 747 mmHg 57%
    18:00 +29°C° 0 mm 0 mps 747 mmHg 64%
    19:00 +27°C° 0 mm 0 mps 748 mmHg 71%
    20:00 +26°C° 0.1 mm 0 mps 749 mmHg 74%
    21:00 +28°C° 0.1 mm 1 mps 749 mmHg 77%
    22:00 +27°C° 0.1 mm 1 mps 750 mmHg 81%
    23:00 +27°C° 0 mm 1 mps 749 mmHg 83%

    17 December, Sunday

    Time Temperature Precipitation Wind Pressure Humidity
    00:00 +27°C° 0 mm 1 mps 749 mmHg 85%
    01:00 +26°C° 0 mm 1 mps 749 mmHg 88%
    02:00 +24°C° 0.3 mm 0 mps 749 mmHg 90%
    03:00 +24°C° 0.3 mm 0 mps 749 mmHg 93%
    04:00 +23°C° 0.3 mm 0 mps 749 mmHg 95%
    05:00 +24°C° 0.2 mm 0 mps 749 mmHg 95%
    06:00 +24°C° 0.2 mm 0 mps 750 mmHg 95%
    07:00 +24°C° 0.2 mm 0 mps 750 mmHg 95%
    08:00 +27°C° 0.6 mm 0 mps 751 mmHg 87%
    09:00 +29°C° 0.6 mm 0 mps 751 mmHg 79%
    10:00 +33°C° 0.6 mm 1 mps 751 mmHg 71%
    11:00 +33°C° 2 mm 1 mps 750 mmHg 70%
    12:00 +33°C° 2 mm 1 mps 749 mmHg 69%
    13:00 +34°C° 2 mm 1 mps 748 mmHg 68%
    14:00 +33°C° 0.7 mm 1 mps 748 mmHg 70%
    15:00 +30°C° 0.7 mm 0 mps 747 mmHg 71%
    16:00 +30°C° 0.7 mm 0 mps 747 mmHg 72%
    17:00 +30°C° 1.3 mm 1 mps 747 mmHg 79%
    18:00 +29°C° 1.3 mm 1 mps 748 mmHg 85%
    19:00 +27°C° 1.3 mm 1 mps 749 mmHg 91%
    20:00 +27°C° 1.5 mm 1 mps 749 mmHg 93%
    21:00 +26°C° 1.5 mm 1 mps 749 mmHg 95%
    22:00 +26°C° 1.5 mm 1 mps 750 mmHg 97%
    23:00 +26°C° 0.4 mm 1 mps 749 mmHg 96%

    18 December, Monday

    Time Temperature Precipitation Wind Pressure Humidity
    00:00 +24°C° 0.4 mm 0 mps 749 mmHg 96%
    01:00 +24°C° 0.4 mm 0 mps 749 mmHg 95%
    02:00 +23°C° 0.1 mm 0 mps 749 mmHg 96%
    03:00 +23°C° 0.1 mm 0 mps 749 mmHg 96%
    04:00 +23°C° 0.1 mm 0 mps 749 mmHg 97%
    05:00 +24°C° 0.1 mm 0 mps 749 mmHg 96%
    06:00 +24°C° 0.1 mm 0 mps 750 mmHg 95%
    07:00 +24°C° 0.1 mm 0 mps 751 mmHg 95%
    08:00 +26°C° 1.6 mm 0 mps 751 mmHg 93%
    09:00 +27°C° 1.6 mm 0 mps 751 mmHg 90%
    10:00 +28°C° 1.6 mm 0 mps 751 mmHg 88%
    11:00 +31°C° 1.2 mm 1 mps 750 mmHg 85%
    12:00 +31°C° 1.2 mm 1 mps 750 mmHg 81%
    13:00 +32°C° 1.2 mm 1 mps 749 mmHg 77%
    14:00 +31°C° 1.4 mm 1 mps 749 mmHg 83%
    15:00 +30°C° 1.4 mm 1 mps 749 mmHg 88%
    16:00 +29°C° 1.4 mm 1 mps 749 mmHg 93%
    17:00 +28°C° 1.1 mm 1 mps 749 mmHg 95%
    18:00 +27°C° 1.1 mm 1 mps 750 mmHg 96%
    19:00 +26°C° 1.1 mm 1 mps 750 mmHg 97%
    20:00 +24°C° 4 mm 0 mps 751 mmHg 98%
    21:00 +24°C° 4 mm 0 mps 751 mmHg 98%
    22:00 +23°C° 4 mm 0 mps 751 mmHg 98%
    23:00 +23°C° 4.3 mm 0 mps 751 mmHg 98%

    19 December, Tuesday

    Time Temperature Precipitation Wind Pressure Humidity
    00:00 +23°C° 4.3 mm 0 mps 751 mmHg 99%
    01:00 +23°C° 4.3 mm 0 mps 750 mmHg 99%
    02:00 +23°C° 2.7 mm 0 mps 750 mmHg 99%
    03:00 +23°C° 2.7 mm 0 mps 750 mmHg 98%
    04:00 +23°C° 2.7 mm 0 mps 750 mmHg 98%
    05:00 +23°C° 3.1 mm 0 mps 751 mmHg 98%
    06:00 +23°C° 3.1 mm 0 mps 752 mmHg 98%
    07:00 +23°C° 3.1 mm 0 mps 752 mmHg 98%
    08:00 +23°C° 1.9 mm 0 mps 752 mmHg 98%
    09:00 +23°C° 1.9 mm 0 mps 752 mmHg 98%
    10:00 +23°C° 1.9 mm 0 mps 753 mmHg 98%
    11:00 +24°C° 0.3 mm 0 mps 752 mmHg 97%
    12:00 +24°C° 0.3 mm 0 mps 751 mmHg 96%
    13:00 +25°C° 0.3 mm 0 mps 751 mmHg 94%
    14:00 +25°C° 0.3 mm 0 mps 750 mmHg 93%
    15:00 +25°C° 0.3 mm 0 mps 750 mmHg 92%
    16:00 +25°C° 0.3 mm 0 mps 749 mmHg 91%
    17:00 +25°C° 0.2 mm 0 mps 750 mmHg 93%
    18:00 +24°C° 0.2 mm 0 mps 750 mmHg 95%
    19:00 +23°C° 0.2 mm 0 mps 751 mmHg 97%
    20:00 +23°C° 0 mm 0 mps 751 mmHg 97%
    21:00 +22°C° 0 mm 0 mps 752 mmHg 97%
    22:00 +22°C° 0 mm 0 mps 752 mmHg 97%
    23:00 +22°C° 0 mm 0 mps 752 mmHg 97%
    Show more